When you browse on this site, cookies collect data to enhance your experience and personalize the content and advertising you see.
Visit our Privacy Policy to learn more. By continuing to use the site, you agree to this use of cookies and data.
  • In Austria
  • List of Countries
  • For 7 days
  • Water Temperature
  • Weather Map
  • News
  • Weather Widgets
  • user-avatar
    Login

    Hourly Weather Fier

    Today, 13 December, Friday

    Time Temperature Precipitation Wind Pressure Humidity
    00:00 +10°C° 0.2 mm 3 mps 750 mmHg 80%
    01:00 +10°C° 0 mm 3 mps 750 mmHg 80%
    02:00 +10°C° 0.7 mm 3 mps 750 mmHg 81%
    03:00 +10°C° 0.7 mm 3 mps 750 mmHg 82%
    04:00 +10°C° 0.7 mm 3 mps 750 mmHg 82%
    05:00 +10°C° 0.4 mm 3 mps 750 mmHg 81%
    06:00 +10°C° 0.4 mm 3 mps 750 mmHg 80%
    07:00 +10°C° 0.4 mm 2 mps 750 mmHg 79%
    08:00 +11°C° 0 mm 3 mps 750 mmHg 74%
    09:00 +12°C° 0 mm 3 mps 750 mmHg 69%
    10:00 +13°C° 0 mm 4 mps 750 mmHg 65%
    11:00 +13°C° 0.3 mm 4 mps 750 mmHg 65%
    12:00 +14°C° 0.3 mm 5 mps 749 mmHg 66%
    13:00 +14°C° 0.3 mm 6 mps 749 mmHg 66%
    14:00 +13°C° 0.1 mm 6 mps 748 mmHg 68%
    15:00 +13°C° 0.1 mm 6 mps 748 mmHg 70%
    16:00 +11°C° 0.1 mm 6 mps 747 mmHg 72%
    17:00 +11°C° 0.2 mm 6 mps 746 mmHg 74%
    18:00 +10°C° 0.2 mm 7 mps 746 mmHg 75%
    19:00 +10°C° 0.2 mm 7 mps 745 mmHg 76%
    20:00 +10°C° 0.3 mm 7 mps 744 mmHg 77%
    21:00 +10°C° 0.3 mm 7 mps 743 mmHg 79%
    22:00 +10°C° 0.3 mm 8 mps 742 mmHg 80%
    23:00 +10°C° 5.7 mm 7 mps 741 mmHg 83%

    Tomorrow, 14 December, Saturday

    Time Temperature Precipitation Wind Pressure Humidity
    00:00 +10°C° 5.7 mm 6 mps 740 mmHg 87%
    01:00 +10°C° 5.7 mm 6 mps 739 mmHg 91%
    02:00 +10°C° 2.8 mm 5 mps 739 mmHg 89%
    03:00 +10°C° 2.8 mm 5 mps 739 mmHg 88%
    04:00 +10°C° 2.8 mm 4 mps 738 mmHg 87%
    05:00 +10°C° 1.5 mm 4 mps 739 mmHg 87%
    06:00 +10°C° 1.5 mm 4 mps 740 mmHg 87%
    07:00 +10°C° 1.5 mm 4 mps 741 mmHg 87%
    08:00 +10°C° 0 mm 3 mps 742 mmHg 82%
    09:00 +11°C° 0 mm 3 mps 743 mmHg 77%
    10:00 +13°C° 0 mm 2 mps 744 mmHg 72%
    11:00 +13°C° 0 mm 3 mps 744 mmHg 71%
    12:00 +13°C° 0 mm 4 mps 745 mmHg 71%
    13:00 +14°C° 0 mm 5 mps 746 mmHg 70%
    14:00 +13°C° 0 mm 5 mps 747 mmHg 73%
    15:00 +13°C° 0 mm 6 mps 748 mmHg 76%
    16:00 +13°C° 0 mm 6 mps 749 mmHg 78%
    17:00 +12°C° 0 mm 5 mps 750 mmHg 79%
    18:00 +12°C° 0 mm 4 mps 752 mmHg 80%
    19:00 +11°C° 0 mm 4 mps 753 mmHg 81%
    20:00 +11°C° 0 mm 3 mps 754 mmHg 80%
    21:00 +11°C° 0 mm 3 mps 755 mmHg 80%
    22:00 +12°C° 0 mm 2 mps 756 mmHg 80%
    23:00 +10°C° 0 mm 2 mps 756 mmHg 80%

    Day after tomorrow, 15 December, Sunday

    Time Temperature Precipitation Wind Pressure Humidity
    00:00 +10°C° 0 mm 2 mps 757 mmHg 80%
    01:00 +10°C° 0 mm 2 mps 758 mmHg 80%
    02:00 +10°C° 0 mm 2 mps 758 mmHg 80%
    03:00 +10°C° 0 mm 2 mps 759 mmHg 79%
    04:00 +10°C° 0 mm 2 mps 759 mmHg 78%
    05:00 +10°C° 0 mm 2 mps 760 mmHg 78%
    06:00 +10°C° 0 mm 2 mps 760 mmHg 77%
    07:00 +10°C° 0 mm 2 mps 761 mmHg 77%
    08:00 +13°C° 0 mm 2 mps 761 mmHg 74%
    09:00 +14°C° 0 mm 2 mps 762 mmHg 70%
    10:00 +16°C° 0 mm 1 mps 762 mmHg 67%
    11:00 +18°C° 0 mm 1 mps 762 mmHg 65%
    12:00 +19°C° 0 mm 1 mps 762 mmHg 63%
    13:00 +20°C° 0 mm 1 mps 762 mmHg 61%
    14:00 +18°C° 0 mm 2 mps 763 mmHg 66%
    15:00 +17°C° 0 mm 2 mps 763 mmHg 70%
    16:00 +16°C° 0 mm 2 mps 763 mmHg 75%
    17:00 +15°C° 0 mm 2 mps 764 mmHg 76%
    18:00 +15°C° 0 mm 2 mps 764 mmHg 77%
    19:00 +14°C° 0 mm 3 mps 764 mmHg 78%
    20:00 +13°C° 0 mm 3 mps 765 mmHg 78%
    21:00 +13°C° 0 mm 3 mps 765 mmHg 78%
    22:00 +14°C° 0 mm 2 mps 765 mmHg 78%
    23:00 +13°C° 0 mm 2 mps 766 mmHg 78%

    16 December, Monday

    Time Temperature Precipitation Wind Pressure Humidity
    00:00 +12°C° 0 mm 3 mps 766 mmHg 78%
    01:00 +12°C° 0 mm 3 mps 766 mmHg 78%
    02:00 +12°C° 0 mm 3 mps 766 mmHg 78%
    03:00 +12°C° 0 mm 3 mps 766 mmHg 78%
    04:00 +11°C° 0 mm 3 mps 766 mmHg 79%
    05:00 +11°C° 0 mm 3 mps 767 mmHg 79%
    06:00 +11°C° 0 mm 3 mps 767 mmHg 79%
    07:00 +11°C° 0 mm 3 mps 767 mmHg 79%
    08:00 +13°C° 0 mm 3 mps 767 mmHg 76%
    09:00 +15°C° 0 mm 2 mps 767 mmHg 72%
    10:00 +16°C° 0 mm 2 mps 768 mmHg 69%
    11:00 +17°C° 0 mm 2 mps 767 mmHg 67%
    12:00 +18°C° 0 mm 2 mps 767 mmHg 65%
    13:00 +18°C° 0 mm 2 mps 767 mmHg 63%
    14:00 +18°C° 0 mm 2 mps 767 mmHg 67%
    15:00 +17°C° 0 mm 2 mps 767 mmHg 71%
    16:00 +16°C° 0 mm 2 mps 767 mmHg 75%
    17:00 +15°C° 0 mm 2 mps 767 mmHg 76%
    18:00 +15°C° 0 mm 2 mps 767 mmHg 77%
    19:00 +14°C° 0 mm 2 mps 767 mmHg 78%
    20:00 +14°C° 0 mm 2 mps 767 mmHg 78%
    21:00 +14°C° 0 mm 2 mps 767 mmHg 78%
    22:00 +13°C° 0 mm 2 mps 767 mmHg 79%
    23:00 +13°C° 0 mm 2 mps 767 mmHg 79%

    17 December, Tuesday

    Time Temperature Precipitation Wind Pressure Humidity
    00:00 +12°C° 0 mm 3 mps 767 mmHg 79%
    01:00 +12°C° 0 mm 3 mps 767 mmHg 79%
    02:00 +11°C° 0 mm 3 mps 767 mmHg 79%
    03:00 +11°C° 0 mm 3 mps 767 mmHg 78%
    04:00 +11°C° 0 mm 3 mps 766 mmHg 78%
    05:00 +11°C° 0 mm 3 mps 767 mmHg 78%
    06:00 +11°C° 0 mm 3 mps 767 mmHg 77%
    07:00 +11°C° 0 mm 3 mps 767 mmHg 77%
    08:00 +12°C° 0 mm 3 mps 767 mmHg 73%
    09:00 +14°C° 0 mm 3 mps 767 mmHg 69%
    10:00 +16°C° 0 mm 2 mps 767 mmHg 66%
    11:00 +17°C° 0 mm 2 mps 767 mmHg 64%
    12:00 +18°C° 0 mm 2 mps 766 mmHg 62%
    13:00 +18°C° 0 mm 2 mps 766 mmHg 60%
    14:00 +18°C° 0 mm 2 mps 766 mmHg 64%
    15:00 +17°C° 0 mm 2 mps 766 mmHg 68%
    16:00 +16°C° 0 mm 2 mps 766 mmHg 72%
    17:00 +15°C° 0 mm 2 mps 766 mmHg 74%
    18:00 +15°C° 0 mm 2 mps 766 mmHg 75%
    19:00 +14°C° 0 mm 2 mps 766 mmHg 76%
    20:00 +14°C° 0 mm 2 mps 766 mmHg 77%
    21:00 +13°C° 0 mm 2 mps 766 mmHg 77%
    22:00 +13°C° 0 mm 2 mps 766 mmHg 78%
    23:00 +13°C° 0 mm 2 mps 766 mmHg 78%

    18 December, Wednesday

    Time Temperature Precipitation Wind Pressure Humidity
    00:00 +12°C° 0 mm 3 mps 766 mmHg 79%
    01:00 +12°C° 0 mm 3 mps 766 mmHg 79%
    02:00 +11°C° 0 mm 3 mps 766 mmHg 79%
    03:00 +11°C° 0 mm 3 mps 766 mmHg 78%
    04:00 +11°C° 0 mm 3 mps 765 mmHg 78%
    05:00 +11°C° 0 mm 3 mps 765 mmHg 78%
    06:00 +11°C° 0 mm 3 mps 765 mmHg 77%
    07:00 +11°C° 0 mm 3 mps 765 mmHg 77%
    08:00 +12°C° 0 mm 3 mps 765 mmHg 73%
    09:00 +14°C° 0 mm 3 mps 766 mmHg 69%
    10:00 +16°C° 0 mm 3 mps 766 mmHg 66%
    11:00 +17°C° 0 mm 3 mps 765 mmHg 64%
    12:00 +18°C° 0 mm 3 mps 765 mmHg 62%
    13:00 +19°C° 0 mm 3 mps 764 mmHg 60%
    14:00 +18°C° 0 mm 3 mps 764 mmHg 64%
    15:00 +17°C° 0 mm 3 mps 764 mmHg 68%
    16:00 +16°C° 0 mm 3 mps 764 mmHg 72%
    17:00 +14°C° 0 mm 3 mps 764 mmHg 74%
    18:00 +14°C° 0 mm 3 mps 764 mmHg 75%
    19:00 +13°C° 0 mm 3 mps 764 mmHg 77%
    20:00 +13°C° 0 mm 3 mps 764 mmHg 78%
    21:00 +13°C° 0 mm 3 mps 764 mmHg 79%
    22:00 +12°C° 0 mm 3 mps 765 mmHg 80%
    23:00 +12°C° 0 mm 4 mps 764 mmHg 80%
    Show more